{"data":{"norad_id":61597,"epoch":"2026-05-25T03:34:46.651584Z","epoch_age_seconds":69009,"freshness":"FRESH","line1":"1 61597U 24188D   26145.14915106 -.00000393  00000+0 -11441-2 0  9995","line2":"2 61597  87.8928  25.6313 0001725  92.4504 267.6821 13.11416045 81435","mean_motion":13.11416045,"eccentricity":0.0001725,"inclination_deg":87.8928,"raan_deg":25.6313,"arg_perigee_deg":92.4504,"mean_anomaly_deg":267.6821,"bstar":-0.0011441,"rev_number":8143,"period_min":109.80497039748,"perigee_km":1216.3758941207,"apogee_km":1218.9964531156,"semimajor_km":7595.8231736182,"source":"CELESTRAK","updated_at":"2026-05-25T13:38:22.748412Z"}}